| time (UTC) | temp F | wind direction | speed knots | gust knots | rain 1hr in | rain 24hr in | rain mn in | humidity % | barometer mb |
| 20260510120653 | 67 | 124 | 1.7 | 3.5 | 0.00 | 0.00 | 0.00 | 73 | 1027.2 |
| 20260510120153 | 67 | 121 | 1.7 | 4.3 | 0.00 | 0.00 | 0.00 | 74 | 1027.2 |
| 20260510115655 | 67 | 133 | 2.6 | 4.3 | 0.00 | 0.00 | 0.00 | 74 | 1027.2 |
| 20260510115158 | 67 | 127 | 1.7 | 4.3 | 0.00 | 0.00 | 0.00 | 74 | 1027.4 |
| 20260510114654 | 67 | 135 | 1.7 | 4.3 | 0.00 | 0.00 | 0.00 | 73 | 1027.5 |
| 20260510114159 | 67 | 180 | 1.7 | 4.3 | 0.00 | 0.00 | 0.00 | 73 | 1027.5 |
| 20260510113649 | 67 | 120 | 0.9 | 2.6 | 0.00 | 0.00 | 0.00 | 74 | 1027.5 |
| 20260510113200 | 67 | 120 | 0.9 | 2.6 | 0.00 | 0.00 | 0.00 | 74 | 1027.4 |
| 20260510112644 | 66 | 120 | 0.9 | 3.5 | 0.00 | 0.00 | 0.00 | 74 | 1027.5 |
| 20260510112143 | 66 | 120 | 0.9 | 3.5 | 0.00 | 0.00 | 0.00 | 75 | 1027.5 |
| 20260510111647 | 66 | 164 | 0.9 | 2.6 | 0.00 | 0.00 | 0.00 | 75 | 1027.5 |
| 20260510111151 | 66 | 164 | 0.9 | 3.5 | 0.00 | 0.00 | 0.00 | 75 | 1027.5 |
| 20260510110647 | 66 | 164 | 0.9 | 3.5 | 0.00 | 0.00 | 0.00 | 76 | 1027.4 |
| 20260510110149 | 66 | 124 | 0.9 | 2.6 | 0.00 | 0.00 | 0.00 | 76 | 1027.5 |
| 20260510105642 | 66 | 124 | 0.9 | 2.6 | 0.00 | 0.00 | 0.00 | 76 | 1027.3 |
| 20260510105135 | 66 | 124 | 1.7 | 2.6 | 0.00 | 0.00 | 0.00 | 76 | 1027.1 |
| 20260510104639 | 66 | 124 | 1.7 | 2.6 | 0.00 | 0.00 | 0.00 | 76 | 1026.9 |
| 20260510104130 | 66 | 124 | 1.7 | 3.5 | 0.00 | 0.00 | 0.00 | 76 | 1027.0 |
| 20260510103630 | 66 | 124 | 1.7 | 3.5 | 0.00 | 0.00 | 0.00 | 76 | 1026.9 |
| 20260510103135 | 66 | 124 | 1.7 | 2.6 | 0.00 | 0.00 | 0.00 | 76 | 1027.0 |
| 20260510102850 | 66 | 124 | 1.7 | 3.5 | 0.00 | 0.00 | 0.00 | 76 | 1026.9 |
| 20260510102135 | 66 | 124 | 0.9 | 3.5 | 0.00 | 0.00 | 0.00 | 76 | 1026.8 |
| 20260510101625 | 66 | 124 | 0.9 | 2.6 | 0.00 | 0.00 | 0.00 | 77 | 1026.8 |
| 20260510101127 | 66 | 124 | 1.7 | 4.3 | 0.00 | 0.00 | 0.00 | 77 | 1026.7 |
| 20260510100630 | 66 | 124 | 1.7 | 4.3 | 0.00 | 0.00 | 0.00 | 77 | 1026.7 |
| 20260510100124 | 66 | 124 | 1.7 | 4.3 | 0.00 | 0.00 | 0.00 | 77 | 1026.6 |
| 20260510095849 | 66 | 119 | 1.7 | 4.3 | 0.00 | 0.00 | 0.00 | 77 | 1026.6 |
| 20260510095126 | 66 | 120 | 1.7 | 4.3 | 0.00 | 0.00 | 0.00 | 77 | 1026.5 |
| 20260510094617 | 66 | 133 | 1.7 | 4.3 | 0.00 | 0.00 | 0.00 | 78 | 1026.5 |
| 20260510094116 | 66 | 125 | 1.7 | 3.5 | 0.00 | 0.00 | 0.00 | 78 | 1026.2 |
| 20260510093611 | 66 | 175 | 1.7 | 2.6 | 0.00 | 0.00 | 0.00 | 77 | 1026.2 |
| 20260510093115 | 66 | 175 | 1.7 | 3.5 | 0.00 | 0.00 | 0.00 | 77 | 1026.1 |
| 20260510092608 | 66 | 175 | 0.9 | 3.5 | 0.00 | 0.00 | 0.00 | 77 | 1026.1 |
| 20260510092107 | 67 | 175 | 0.9 | 1.7 | 0.00 | 0.00 | 0.00 | 77 | 1026.2 |
| 20260510091609 | 67 | 175 | 0.9 | 2.6 | 0.00 | 0.00 | 0.00 | 76 | 1026.2 |
| 20260510091110 | 67 | 175 | 0.9 | 3.5 | 0.00 | 0.00 | 0.00 | 76 | 1026.3 |
| 20260510090819 | 67 | 175 | 0.9 | 3.5 | 0.00 | 0.00 | 0.00 | 76 | 1026.4 |
| 20260510090109 | 67 | 175 | 0.9 | 2.6 | 0.00 | 0.00 | 0.00 | 76 | 1026.4 |
| 20260510085556 | 67 | 175 | 0.9 | 2.6 | 0.00 | 0.00 | 0.00 | 76 | 1026.3 |
| 20260510085040 | 67 | 175 | 0.9 | 2.6 | 0.00 | 0.00 | 0.00 | 76 | 1026.4 |
| 20260510084539 | 67 | 180 | 0.9 | 2.6 | 0.00 | 0.00 | 0.00 | 76 | 1026.3 |
| 20260510084317 | 67 | 180 | 0.9 | 2.6 | 0.00 | 0.00 | 0.00 | 75 | 1026.3 |
| 20260510083536 | 67 | 180 | 0.9 | 2.6 | 0.00 | 0.00 | 0.00 | 75 | 1026.3 |
| 20260510083303 | 68 | 180 | 1.7 | 2.6 | 0.00 | 0.00 | 0.00 | 75 | 1026.2 |
| 20260510082548 | 68 | 140 | 1.7 | 2.6 | 0.00 | 0.00 | 0.00 | 75 | 1025.8 |
| 20260510082035 | 68 | 143 | 1.7 | 2.6 | 0.00 | 0.00 | 0.00 | 75 | 1025.7 |
| 20260510081510 | 68 | 165 | 1.7 | 2.6 | 0.00 | 0.00 | 0.00 | 75 | 1025.8 |
| 20260510081011 | 68 | 164 | 0.9 | 3.5 | 0.00 | 0.00 | 0.00 | 75 | 1025.9 |
| 20260510080455 | 68 | 164 | 1.7 | 3.5 | 0.00 | 0.00 | 0.00 | 75 | 1025.7 |
| 20260510075954 | 68 | 175 | 1.7 | 4.3 | 0.00 | 0.00 | 0.00 | 75 | 1025.6 |
| 20260510075448 | 68 | 166 | 1.7 | 4.3 | 0.00 | 0.00 | 0.00 | 75 | 1025.7 |
| 20260510075215 | 68 | 216 | 1.7 | 4.3 | 0.00 | 0.00 | 0.00 | 74 | 1025.8 |
| 20260510074424 | 69 | 126 | 1.7 | 3.5 | 0.00 | 0.00 | 0.00 | 74 | 1025.6 |
| 20260510073927 | 69 | 162 | 1.7 | 3.5 | 0.00 | 0.00 | 0.00 | 74 | 1025.6 |
| 20260510073407 | 69 | 159 | 1.7 | 3.5 | 0.00 | 0.00 | 0.00 | 74 | 1025.6 |
| 20260510073136 | 69 | 164 | 1.7 | 4.3 | 0.00 | 0.00 | 0.00 | 74 | 1025.6 |
| 20260510072347 | 69 | 175 | 1.7 | 4.3 | 0.00 | 0.00 | 0.00 | 74 | 1025.4 |
| 20260510071816 | 69 | 175 | 1.7 | 7.0 | 0.00 | 0.00 | 0.00 | 74 | 1025.3 |
| 20260510071519 | 70 | 158 | 2.6 | 7.0 | 0.00 | 0.00 | 0.00 | 74 | 1025.2 |
| 20260510071028 | 70 | 108 | 1.7 | 7.0 | 0.00 | 0.00 | 0.00 | 73 | 1025.3 |
| 20260510070258 | 70 | 130 | 1.7 | 7.0 | 0.00 | 0.00 | 0.00 | 73 | 1025.3 |
| 20260510070024 | 70 | 151 | 2.6 | 7.0 | 0.00 | 0.00 | 0.00 | 72 | 1025.2 |
| 20260510065306 | 70 | 160 | 2.6 | 7.0 | 0.00 | 0.00 | 0.00 | 72 | 1025.1 |
| 20260510064754 | 70 | 191 | 2.6 | 5.2 | 0.00 | 0.00 | 0.00 | 72 | 1024.9 |
| 20260510064254 | 71 | 166 | 2.6 | 8.7 | 0.00 | 0.00 | 0.00 | 72 | 1024.8 |
| 20260510063752 | 71 | 122 | 3.5 | 8.7 | 0.00 | 0.00 | 0.00 | 71 | 1024.8 |
| 20260510063256 | 71 | 175 | 3.5 | 8.7 | 0.00 | 0.00 | 0.00 | 71 | 1024.9 |
| 20260510063233 | 71 | 113 | 2.6 | 8.7 | 0.00 | 0.00 | 0.00 | 70 | 1024.9 |
| 20260510062253 | 72 | 202 | 2.6 | 4.3 | 0.00 | 0.00 | 0.00 | 70 | 1024.9 |
| 20260510061747 | 72 | 166 | 2.6 | 6.1 | 0.00 | 0.00 | 0.00 | 70 | 1024.8 |
| 20260510061314 | 72 | 131 | 2.6 | 7.0 | 0.00 | 0.00 | 0.00 | 70 | 1024.7 |
| 20260510060732 | 72 | 99 | 2.6 | 7.8 | 0.00 | 0.00 | 0.00 | 70 | 1024.7 |
| 20260510060246 | 72 | 116 | 2.6 | 7.8 | 0.00 | 0.00 | 0.00 | 69 | 1024.6 |
| 20260510055736 | 73 | 122 | 2.6 | 8.7 | 0.00 | 0.00 | 0.00 | 69 | 1024.6 |
| 20260510055228 | 73 | 122 | 4.3 | 10.4 | 0.00 | 0.00 | 0.00 | 69 | 1024.6 |
| 20260510054732 | 73 | 101 | 4.3 | 10.4 | 0.00 | 0.00 | 0.00 | 69 | 1024.6 |
| 20260510054723 | 73 | 118 | 3.5 | 8.7 | 0.00 | 0.00 | 0.00 | 69 | 1024.5 |
| 20260510053727 | 73 | 121 | 3.5 | 8.7 | 0.00 | 0.00 | 0.00 | 69 | 1024.4 |
| 20260510053234 | 73 | 112 | 2.6 | 8.7 | 0.00 | 0.00 | 0.00 | 69 | 1024.4 |
| 20260510052707 | 74 | 118 | 2.6 | 7.0 | 0.00 | 0.00 | 0.00 | 69 | 1024.3 |
| 20260510052435 | 74 | 114 | 3.5 | 8.7 | 0.00 | 0.00 | 0.00 | 69 | 1024.4 |
| 20260510051923 | 74 | 145 | 4.3 | 8.7 | 0.00 | 0.00 | 0.00 | 68 | 1024.3 |
| 20260510051211 | 74 | 118 | 4.3 | 10.4 | 0.00 | 0.00 | 0.00 | 68 | 1024.4 |
| 20260510050703 | 74 | 118 | 4.3 | 10.4 | 0.00 | 0.00 | 0.00 | 67 | 1024.4 |
| 20260510050204 | 74 | 110 | 4.3 | 8.7 | 0.00 | 0.00 | 0.00 | 66 | 1024.5 |
| 20260510045703 | 74 | 120 | 3.5 | 8.7 | 0.00 | 0.00 | 0.00 | 67 | 1024.5 |
| 20260510045210 | 75 | 124 | 3.5 | 7.8 | 0.00 | 0.00 | 0.00 | 67 | 1024.6 |
| 20260510044654 | 75 | 122 | 4.3 | 7.8 | 0.00 | 0.00 | 0.00 | 66 | 1024.6 |
| 20260510044155 | 75 | 129 | 4.3 | 9.6 | 0.00 | 0.00 | 0.00 | 65 | 1024.5 |
| 20260510043636 | 75 | 124 | 3.5 | 9.6 | 0.00 | 0.00 | 0.00 | 65 | 1024.5 |
| 20260510043119 | 75 | 123 | 4.3 | 8.7 | 0.00 | 0.00 | 0.00 | 64 | 1024.4 |
| 20260510042558 | 76 | 185 | 4.3 | 10.4 | 0.00 | 0.00 | 0.00 | 64 | 1024.4 |
| 20260510042055 | 76 | 120 | 4.3 | 10.4 | 0.00 | 0.00 | 0.00 | 63 | 1024.4 |
| 20260510041815 | 76 | 124 | 4.3 | 10.4 | 0.00 | 0.00 | 0.00 | 62 | 1024.4 |
| 20260510041100 | 76 | 146 | 4.3 | 10.4 | 0.00 | 0.00 | 0.00 | 61 | 1024.4 |
| 20260510040537 | 77 | 137 | 3.5 | 9.6 | 0.00 | 0.00 | 0.00 | 61 | 1024.4 |
| 20260510040038 | 77 | 112 | 3.5 | 8.7 | 0.00 | 0.00 | 0.00 | 60 | 1024.4 |
| 20260510035533 | 77 | 123 | 3.5 | 8.7 | 0.00 | 0.00 | 0.00 | 59 | 1024.3 |
| 20260510035024 | 77 | 133 | 5.2 | 10.4 | 0.00 | 0.00 | 0.00 | 58 | 1024.3 |
| 20260510034531 | 77 | 134 | 4.3 | 10.4 | 0.00 | 0.00 | 0.00 | 57 | 1024.3 |
| 20260510034007 | 78 | 107 | 4.3 | 8.7 | 0.00 | 0.00 | 0.00 | 58 | 1024.4 |
| 20260510033946 | 78 | 191 | 3.5 | 8.7 | 0.00 | 0.00 | 0.00 | 59 | 1024.3 |
| 20260510032958 | 78 | 101 | 3.5 | 9.6 | 0.00 | 0.00 | 0.00 | 59 | 1024.3 |
| 20260510032731 | 78 | 226 | 3.5 | 8.7 | 0.00 | 0.00 | 0.00 | 59 | 1024.2 |
| 20260510031939 | 78 | 135 | 3.5 | 10.4 | 0.00 | 0.00 | 0.00 | 59 | 1024.4 |
| 20260510031448 | 78 | 120 | 4.3 | 9.6 | 0.00 | 0.00 | 0.00 | 61 | 1024.3 |
| 20260510030945 | 78 | 212 | 4.3 | 9.6 | 0.00 | 0.00 | 0.00 | 60 | 1024.3 |
| 20260510030436 | 78 | 122 | 4.3 | 11.3 | 0.00 | 0.00 | 0.00 | 60 | 1024.3 |
| 20260510030148 | 78 | 191 | 4.3 | 11.3 | 0.00 | 0.00 | 0.00 | 61 | 1024.4 |
| 20260510025434 | 78 | 133 | 5.2 | 11.3 | 0.00 | 0.00 | 0.00 | 60 | 1024.4 |
| 20260510024912 | 78 | 126 | 5.2 | 11.3 | 0.00 | 0.00 | 0.00 | 60 | 1024.4 |
| 20260510024352 | 78 | 118 | 4.3 | 11.3 | 0.00 | 0.00 | 0.00 | 59 | 1024.5 |
| 20260510023847 | 78 | 193 | 4.3 | 10.4 | 0.00 | 0.00 | 0.00 | 60 | 1024.5 |
| 20260510023326 | 78 | 75 | 3.5 | 10.4 | 0.00 | 0.00 | 0.00 | 60 | 1024.5 |
| 20260510022850 | 78 | 124 | 3.5 | 10.4 | 0.00 | 0.00 | 0.00 | 60 | 1024.6 |
| 20260510022533 | 78 | 133 | 3.5 | 9.6 | 0.00 | 0.00 | 0.00 | 60 | 1024.7 |
| 20260510021741 | 78 | 102 | 3.5 | 9.6 | 0.00 | 0.00 | 0.00 | 63 | 1024.7 |
| 20260510021239 | 77 | 204 | 4.3 | 12.2 | 0.00 | 0.00 | 0.00 | 62 | 1024.7 |
| 20260510020752 | 77 | 106 | 4.3 | 12.2 | 0.00 | 0.00 | 0.00 | 62 | 1024.8 |
| 20260510020237 | 77 | 175 | 4.3 | 10.4 | 0.00 | 0.00 | 0.00 | 63 | 1024.9 |
| 20260510015744 | 77 | 110 | 4.3 | 11.3 | 0.00 | 0.00 | 0.00 | 62 | 1025.0 |
| 20260510015456 | 76 | 118 | 3.5 | 11.3 | 0.00 | 0.00 | 0.00 | 62 | 1025.2 |
| 20260510015227 | 76 | 142 | 3.5 | 8.7 | 0.00 | 0.00 | 0.00 | 63 | 1025.3 |
| 20260510014240 | 75 | 163 | 3.5 | 7.8 | 0.00 | 0.00 | 0.00 | 65 | 1025.4 |
| 20260510013750 | 75 | 141 | 3.5 | 8.7 | 0.00 | 0.00 | 0.00 | 66 | 1025.6 |
| 20260510013233 | 75 | 118 | 3.5 | 8.7 | 0.00 | 0.00 | 0.00 | 65 | 1025.7 |
| 20260510012741 | 75 | 109 | 2.6 | 7.0 | 0.00 | 0.00 | 0.00 | 66 | 1025.7 |
| 20260510012218 | 75 | 145 | 3.5 | 7.8 | 0.00 | 0.00 | 0.00 | 65 | 1025.7 |
| 20260510011730 | 75 | 133 | 2.6 | 7.8 | 0.00 | 0.00 | 0.00 | 65 | 1025.7 |
| 20260510011201 | 75 | 137 | 2.6 | 5.2 | 0.00 | 0.00 | 0.00 | 66 | 1025.8 |
| 20260510010923 | 75 | 132 | 3.5 | 8.7 | 0.00 | 0.00 | 0.00 | 65 | 1025.9 |
| 20260510010149 | 75 | 180 | 3.5 | 8.7 | 0.00 | 0.00 | 0.00 | 66 | 1026.0 |
| 20260510005652 | 75 | 192 | 2.6 | 7.8 | 0.00 | 0.00 | 0.00 | 66 | 1026.1 |
| 20260510005151 | 75 | 202 | 2.6 | 7.8 | 0.00 | 0.00 | 0.00 | 66 | 1026.1 |
| 20260510004857 | 75 | 163 | 3.5 | 7.8 | 0.00 | 0.00 | 0.00 | 66 | 1026.1 |
| 20260510004058 | 75 | 249 | 2.6 | 7.8 | 0.00 | 0.00 | 0.00 | 65 | 1026.1 |
| 20260510003556 | 75 | 207 | 2.6 | 6.1 | 0.00 | 0.00 | 0.00 | 66 | 1026.4 |
| 20260510003051 | 75 | 166 | 2.6 | 6.1 | 0.00 | 0.00 | 0.00 | 66 | 1026.4 |
| 20260510002555 | 75 | 215 | 2.6 | 6.1 | 0.00 | 0.00 | 0.00 | 66 | 1026.5 |
| 20260510002050 | 74 | 116 | 2.6 | 6.1 | 0.00 | 0.00 | 0.00 | 66 | 1026.4 |
| 20260510001558 | 74 | 180 | 3.5 | 7.8 | 0.00 | 0.00 | 0.00 | 67 | 1026.5 |
| 20260510001050 | 74 | 241 | 2.6 | 7.8 | 0.00 | 0.00 | 0.00 | 67 | 1026.5 |
| 20260510000550 | 74 | 226 | 1.7 | 5.2 | 0.00 | 0.00 | 0.00 | 68 | 1026.5 |
| 20260510000105 | 73 | 190 | 1.7 | 5.2 | 0.00 | 0.00 | 0.00 | 68 | 1026.5 |
| 20260509235546 | 73 | 205 | 1.7 | 4.3 | 0.00 | 0.00 | 0.00 | 69 | 1026.5 |
| 20260509235044 | 72 | 175 | 1.7 | 4.3 | 0.00 | 0.00 | 0.00 | 69 | 1026.4 |
| 20260509234808 | 72 | 250 | 1.7 | 4.3 | 0.00 | 0.00 | 0.00 | 70 | 1026.4 |
| 20260509234043 | 71 | 225 | 0.9 | 3.5 | 0.00 | 0.00 | 0.00 | 70 | 1026.4 |
| 20260509233553 | 71 | 226 | 1.7 | 3.5 | 0.00 | 0.00 | 0.00 | 72 | 1026.5 |
| 20260509233030 | 70 | 226 | 1.7 | 4.3 | 0.00 | 0.00 | 0.00 | 73 | 1026.5 |
| 20260509232526 | 69 | 246 | 1.7 | 4.3 | 0.00 | 0.00 | 0.00 | 73 | 1026.5 |
| 20260509232027 | 69 | 166 | 2.6 | 5.2 | 0.00 | 0.00 | 0.00 | 75 | 1026.4 |
| 20260509231513 | 67 | 195 | 1.7 | 5.2 | 0.00 | 0.00 | 0.00 | 75 | 1026.3 |
| 20260509231019 | 67 | 239 | 1.7 | 5.2 | 0.00 | 0.00 | 0.00 | 76 | 1026.2 |
| 20260509230748 | 66 | 219 | 2.6 | 5.2 | 0.00 | 0.00 | 0.00 | 76 | 1026.1 |
| 20260509230010 | 65 | 175 | 2.6 | 4.3 | 0.00 | 0.00 | 0.00 | 77 | 1026.2 |
| 20260509225515 | 65 | 195 | 1.7 | 4.3 | 0.00 | 0.00 | 0.00 | 78 | 1026.1 |
| 20260509225022 | 64 | 218 | 1.7 | 5.2 | 0.00 | 0.00 | 0.00 | 78 | 1026.2 |
| 20260509224501 | 64 | 219 | 1.7 | 5.2 | 0.00 | 0.00 | 0.00 | 80 | 1026.2 |
| 20260509224005 | 63 | 199 | 0.9 | 3.5 | 0.00 | 0.00 | 0.00 | 80 | 1026.0 |
| 20260509223451 | 62 | 206 | 0.9 | 4.3 | 0.00 | 0.00 | 0.00 | 81 | 1026.0 |
| 20260509222957 | 62 | 206 | 1.7 | 4.3 | 0.00 | 0.00 | 0.00 | 81 | 1026.0 |
| 20260509222451 | 61 | 229 | 1.7 | 4.3 | 0.00 | 0.00 | 0.00 | 81 | 1025.9 |
| 20260509221953 | 61 | 234 | 1.7 | 4.3 | 0.00 | 0.00 | 0.00 | 82 | 1025.8 |
| 20260509221451 | 60 | 221 | 1.7 | 4.3 | 0.00 | 0.00 | 0.00 | 83 | 1025.7 |
| 20260509220957 | 60 | 222 | 1.7 | 4.3 | 0.00 | 0.00 | 0.00 | 84 | 1025.7 |
| 20260509220456 | 59 | 251 | 1.7 | 4.3 | 0.00 | 0.00 | 0.00 | 84 | 1025.7 |
| 20260509215949 | 58 | 212 | 0.9 | 4.3 | 0.00 | 0.00 | 0.00 | 85 | 1025.7 |
| 20260509215711 | 58 | 185 | 1.7 | 4.3 | 0.00 | 0.00 | 0.00 | 85 | 1025.8 |
| 20260509214952 | 57 | 189 | 1.7 | 4.3 | 0.00 | 0.00 | 0.00 | 85 | 1025.7 |
| 20260509214450 | 57 | 224 | 1.7 | 4.3 | 0.00 | 0.00 | 0.00 | 85 | 1025.8 |
| 20260509213945 | 57 | 249 | 0.9 | 3.5 | 0.00 | 0.00 | 0.00 | 85 | 1025.8 |
| 20260509213501 | 56 | 217 | 0.9 | 3.5 | 0.00 | 0.00 | 0.00 | 85 | 1025.7 |
| 20260509212938 | 56 | 219 | 1.7 | 4.3 | 0.00 | 0.00 | 0.00 | 85 | 1025.6 |
| 20260509212433 | 56 | 248 | 1.7 | 4.3 | 0.00 | 0.00 | 0.00 | 85 | 1025.5 |
| 20260509211934 | 55 | 224 | 0.9 | 2.6 | 0.00 | 0.00 | 0.00 | 85 | 1025.4 |
| 20260509211433 | 55 | 224 | 0.9 | 3.5 | 0.00 | 0.00 | 0.00 | 85 | 1025.3 |
| 20260509211124 | 55 | 218 | 0.9 | 3.5 | 0.00 | 0.00 | 0.00 | 85 | 1025.2 |
| 20260509210408 | 55 | 244 | 0.9 | 3.5 | 0.00 | 0.00 | 0.00 | 85 | 1025.1 |
| 20260509205850 | 55 | 244 | 0.9 | 3.5 | 0.00 | 0.00 | 0.00 | 85 | 1024.9 |
| 20260509205343 | 55 | 246 | 0.9 | 3.5 | 0.00 | 0.00 | 0.00 | 85 | 1024.8 |
| 20260509204911 | 55 | 195 | 0.0 | 2.6 | 0.00 | 0.00 | 0.00 | 84 | 1024.8 |
| 20260509204601 | 55 | 195 | 0.0 | 2.6 | 0.00 | 0.00 | 0.00 | 84 | 1024.8 |
| 20260509203826 | 55 | 195 | 0.9 | 2.6 | 0.00 | 0.00 | 0.00 | 84 | 1024.7 |
| 20260509203307 | 55 | 195 | 0.9 | 2.6 | 0.00 | 0.00 | 0.00 | 84 | 1024.6 |
| 20260509202812 | 55 | 195 | 0.9 | 2.6 | 0.00 | 0.00 | 0.00 | 84 | 1024.6 |
| 20260509202307 | 55 | 195 | 0.9 | 1.7 | 0.00 | 0.00 | 0.00 | 84 | 1024.6 |
| 20260509202036 | 55 | 195 | 0.9 | 2.6 | 0.00 | 0.00 | 0.00 | 84 | 1024.5 |
| 20260509201305 | 55 | 195 | 0.9 | 4.3 | 0.00 | 0.00 | 0.00 | 84 | 1024.5 |
| 20260509201035 | 55 | 195 | 0.9 | 4.3 | 0.00 | 0.00 | 0.00 | 84 | 1024.4 |
| 20260509200316 | 55 | 195 | 1.7 | 4.3 | 0.00 | 0.00 | 0.00 | 84 | 1024.5 |
| 20260509195818 | 55 | 191 | 1.7 | 4.3 | 0.00 | 0.00 | 0.00 | 84 | 1024.5 |
| 20260509195246 | 55 | 185 | 1.7 | 3.5 | 0.00 | 0.00 | 0.00 | 84 | 1024.4 |
| 20260509195231 | 55 | 216 | 1.7 | 3.5 | 0.00 | 0.00 | 0.00 | 84 | 1024.3 |
| 20260509194223 | 55 | 198 | 0.9 | 3.5 | 0.00 | 0.00 | 0.00 | 84 | 1024.3 |
| 20260509193655 | 55 | 198 | 0.9 | 3.5 | 0.00 | 0.00 | 0.00 | 84 | 1024.3 |
| 20260509193214 | 55 | 198 | 0.9 | 3.5 | 0.00 | 0.00 | 0.00 | 84 | 1024.3 |
| 20260509192643 | 55 | 198 | 0.9 | 2.6 | 0.00 | 0.00 | 0.00 | 84 | 1024.2 |
| 20260509192137 | 55 | 198 | 0.9 | 2.6 | 0.00 | 0.00 | 0.00 | 84 | 1024.1 |
| 20260509191605 | 55 | 198 | 0.9 | 2.6 | 0.00 | 0.00 | 0.00 | 84 | 1024.1 |
| 20260509191111 | 55 | 199 | 0.9 | 3.5 | 0.00 | 0.00 | 0.00 | 84 | 1024.0 |
| 20260509190600 | 55 | 197 | 0.9 | 3.5 | 0.00 | 0.00 | 0.00 | 84 | 1024.0 |
| 20260509190323 | 55 | 166 | 1.7 | 3.5 | 0.00 | 0.00 | 0.00 | 84 | 1024.0 |
| 20260509185555 | 55 | 189 | 1.7 | 3.5 | 0.00 | 0.00 | 0.00 | 85 | 1024.0 |
| 20260509185053 | 55 | 189 | 0.9 | 3.5 | 0.00 | 0.00 | 0.00 | 85 | 1023.9 |
| 20260509184551 | 55 | 222 | 0.9 | 1.7 | 0.00 | 0.00 | 0.00 | 85 | 1023.9 |
| 20260509184039 | 55 | 223 | 0.9 | 1.7 | 0.00 | 0.00 | 0.00 | 85 | 1024.0 |
| 20260509183553 | 55 | 222 | 0.9 | 1.7 | 0.00 | 0.00 | 0.00 | 85 | 1024.0 |
| 20260509183255 | 55 | 223 | 0.9 | 3.5 | 0.00 | 0.00 | 0.00 | 85 | 1023.9 |
| 20260509182454 | 55 | 222 | 0.9 | 3.5 | 0.00 | 0.00 | 0.00 | 85 | 1023.8 |
| 20260509182006 | 55 | 223 | 0.0 | 3.5 | 0.00 | 0.00 | 0.00 | 85 | 1023.8 |
| 20260509181459 | 55 | 219 | 0.0 | 1.7 | 0.00 | 0.00 | 0.00 | 85 | 1023.8 |
| 20260509180947 | 55 | 219 | 0.9 | 2.6 | 0.00 | 0.00 | 0.00 | 85 | 1023.8 |
| 20260509180442 | 55 | 219 | 0.9 | 2.6 | 0.00 | 0.00 | 0.00 | 86 | 1023.8 |
| 20260509175945 | 55 | 219 | 0.9 | 3.5 | 0.00 | 0.00 | 0.00 | 86 | 1023.7 |
| 20260509175437 | 55 | 222 | 1.7 | 3.5 | 0.00 | 0.00 | 0.00 | 86 | 1023.7 |
| 20260509174946 | 55 | 241 | 1.7 | 2.6 | 0.00 | 0.00 | 0.00 | 86 | 1023.6 |
| 20260509174439 | 55 | 206 | 1.7 | 3.5 | 0.00 | 0.00 | 0.00 | 87 | 1023.5 |
| 20260509173940 | 55 | 206 | 1.7 | 3.5 | 0.00 | 0.00 | 0.00 | 87 | 1023.6 |
| 20260509173440 | 55 | 222 | 0.9 | 3.5 | 0.00 | 0.00 | 0.00 | 87 | 1023.5 |
| 20260509172940 | 55 | 207 | 0.9 | 3.5 | 0.00 | 0.00 | 0.00 | 87 | 1023.4 |
| 20260509172429 | 55 | 185 | 0.9 | 2.6 | 0.00 | 0.00 | 0.00 | 87 | 1023.4 |
| 20260509171939 | 55 | 185 | 0.0 | 1.7 | 0.00 | 0.00 | 0.00 | 88 | 1023.5 |
| 20260509171853 | 55 | 185 | 0.9 | 2.6 | 0.00 | 0.00 | 0.00 | 88 | 1023.5 |
| 20260509171525 | 55 | 185 | 0.0 | 1.7 | 0.00 | 0.00 | 0.00 | 88 | 1023.6 |
| 20260509170411 | 55 | 185 | 0.0 | 2.6 | 0.00 | 0.00 | 0.00 | 88 | 1023.6 |
| 20260509165904 | 54 | 185 | 0.0 | 1.7 | 0.00 | 0.00 | 0.00 | 88 | 1023.7 |
| 20260509165412 | 54 | 185 | 0.0 | 1.7 | 0.00 | 0.00 | 0.00 | 88 | 1023.7 |
| 20260509164915 | 54 | 185 | 0.0 | 1.7 | 0.00 | 0.00 | 0.00 | 89 | 1023.7 |
| 20260509164411 | 54 | 185 | 0.0 | 0.9 | 0.00 | 0.00 | 0.00 | 89 | 1023.7 |
| 20260509163914 | 54 | 185 | 0.0 | 1.7 | 0.00 | 0.00 | 0.00 | 89 | 1023.7 |
| 20260509163402 | 54 | 185 | 0.0 | 1.7 | 0.00 | 0.00 | 0.00 | 89 | 1023.6 |
| 20260509162910 | 54 | 185 | 0.0 | 3.5 | 0.00 | 0.00 | 0.00 | 89 | 1023.7 |
| 20260509162354 | 54 | 185 | 0.0 | 3.5 | 0.00 | 0.00 | 0.00 | 90 | 1023.6 |
| 20260509161847 | 54 | 185 | 0.9 | 3.5 | 0.00 | 0.00 | 0.00 | 90 | 1023.6 |
| 20260509161326 | 54 | 185 | 0.9 | 3.5 | 0.00 | 0.00 | 0.00 | 90 | 1023.5 |
| 20260509160830 | 53 | 132 | 0.0 | 2.6 | 0.00 | 0.00 | 0.00 | 90 | 1023.5 |
| 20260509160312 | 53 | 130 | 0.0 | 1.7 | 0.00 | 0.00 | 0.00 | 90 | 1023.5 |
| 20260509155816 | 53 | 130 | 0.0 | 1.7 | 0.00 | 0.00 | 0.00 | 90 | 1023.6 |
| 20260509155539 | 53 | 130 | 0.0 | 1.7 | 0.00 | 0.00 | 0.00 | 90 | 1023.7 |
| 20260509154807 | 53 | 130 | 0.0 | 1.7 | 0.00 | 0.00 | 0.00 | 90 | 1023.7 |
| 20260509154308 | 53 | 130 | 0.9 | 1.7 | 0.00 | 0.00 | 0.00 | 90 | 1023.6 |
| 20260509154027 | 53 | 130 | 0.0 | 1.7 | 0.00 | 0.00 | 0.00 | 90 | 1023.6 |
| 20260509153307 | 53 | 130 | 0.0 | 1.7 | 0.00 | 0.00 | 0.00 | 90 | 1023.7 |
| 20260509153255 | 53 | 130 | 0.0 | 1.7 | 0.00 | 0.00 | 0.00 | 90 | 1023.8 |
| 20260509152259 | 53 | 130 | 0.0 | 1.7 | 0.00 | 0.00 | 0.00 | 90 | 1023.8 |
| 20260509151757 | 52 | 130 | 0.0 | 1.7 | 0.00 | 0.00 | 0.00 | 89 | 1023.7 |
| 20260509151301 | 53 | 130 | 0.0 | 1.7 | 0.00 | 0.00 | 0.00 | 89 | 1023.8 |
| 20260509150802 | 53 | 119 | 0.0 | 0.9 | 0.00 | 0.00 | 0.00 | 89 | 1023.8 |
| 20260509150258 | 53 | 119 | 0.0 | 1.7 | 0.00 | 0.00 | 0.00 | 89 | 1024.0 |
| 20260509145756 | 53 | 119 | 0.0 | 1.7 | 0.00 | 0.00 | 0.00 | 89 | 1023.9 |
| 20260509145251 | 53 | 119 | 0.0 | 0.9 | 0.00 | 0.00 | 0.00 | 89 | 1024.0 |
| 20260509145009 | 53 | 119 | 0.0 | 0.9 | 0.00 | 0.00 | 0.00 | 89 | 1024.0 |
| 20260509144511 | 53 | 119 | 0.0 | 0.9 | 0.00 | 0.00 | 0.00 | 89 | 1024.0 |
| 20260509143957 | 53 | 119 | 0.0 | 0.9 | 0.00 | 0.00 | 0.00 | 89 | 1024.0 |
| 20260509143208 | 53 | 119 | 0.0 | 0.9 | 0.00 | 0.00 | 0.00 | 88 | 1023.9 |
| 20260509142706 | 53 | 119 | 0.0 | 0.9 | 0.00 | 0.00 | 0.00 | 88 | 1024.0 |
| 20260509142206 | 53 | 119 | 0.0 | 0.9 | 0.00 | 0.00 | 0.00 | 88 | 1024.0 |
| 20260509141713 | 53 | 119 | 0.0 | 0.9 | 0.00 | 0.00 | 0.00 | 88 | 1024.1 |
| 20260509141418 | 53 | 119 | 0.0 | 0.9 | 0.00 | 0.00 | 0.00 | 88 | 1024.1 |
| 20260509140706 | 53 | 119 | 0.0 | 0.9 | 0.00 | 0.00 | 0.00 | 88 | 1024.1 |
| 20260509140204 | 53 | 119 | 0.0 | 0.9 | 0.00 | 0.00 | 0.00 | 88 | 1024.0 |
| 20260509135704 | 53 | 119 | 0.0 | 0.9 | 0.00 | 0.00 | 0.00 | 88 | 1024.1 |
| 20260509135158 | 53 | 119 | 0.0 | 0.9 | 0.00 | 0.00 | 0.00 | 88 | 1024.1 |
| 20260509134639 | 54 | 119 | 0.0 | 0.9 | 0.00 | 0.00 | 0.00 | 88 | 1024.1 |
| 20260509134145 | 54 | 119 | 0.0 | 1.7 | 0.00 | 0.00 | 0.00 | 87 | 1024.1 |
| 20260509133612 | 54 | 119 | 0.0 | 1.7 | 0.00 | 0.00 | 0.00 | 87 | 1024.1 |
| 20260509133358 | 54 | 119 | 0.0 | 0.9 | 0.00 | 0.00 | 0.00 | 87 | 1024.1 |
| 20260509132600 | 54 | 119 | 0.0 | 0.9 | 0.00 | 0.00 | 0.00 | 87 | 1024.1 |
| 20260509132058 | 54 | 119 | 0.0 | 0.0 | 0.00 | 0.00 | 0.00 | 87 | 1024.1 |
| 20260509131559 | 54 | 119 | 0.0 | 1.7 | 0.00 | 0.00 | 0.00 | 87 | 1024.1 |
| 20260509131104 | 54 | 119 | 0.0 | 1.7 | 0.00 | 0.00 | 0.00 | 87 | 1024.1 |
| 20260509130554 | 54 | 119 | 0.0 | 1.7 | 0.00 | 0.00 | 0.00 | 87 | 1024.0 |
| 20260509130321 | 55 | 119 | 0.0 | 1.7 | 0.00 | 0.00 | 0.00 | 87 | 1024.1 |
| 20260509125546 | 55 | 119 | 0.0 | 0.9 | 0.00 | 0.00 | 0.00 | 86 | 1024.1 |
| 20260509125048 | 55 | 119 | 0.0 | 0.9 | 0.00 | 0.00 | 0.00 | 86 | 1024.1 |
| 20260509124544 | 55 | 119 | 0.0 | 0.9 | 0.00 | 0.00 | 0.00 | 86 | 1024.0 |
| 20260509124036 | 55 | 119 | 0.0 | 0.9 | 0.00 | 0.00 | 0.00 | 86 | 1024.1 |
| 20260509123533 | 55 | 119 | 0.0 | 0.9 | 0.00 | 0.00 | 0.00 | 86 | 1024.0 |
| 20260509123029 | 55 | 119 | 0.0 | 0.9 | 0.00 | 0.00 | 0.00 | 86 | 1024.1 |
| 20260509122530 | 56 | 119 | 0.0 | 0.9 | 0.00 | 0.00 | 0.00 | 85 | 1024.1 |
| 20260509122254 | 56 | 119 | 0.0 | 0.9 | 0.00 | 0.00 | 0.00 | 85 | 1024.1 |
| 20260509121757 | 56 | 119 | 0.0 | 0.0 | 0.00 | 0.00 | 0.00 | 85 | 1024.1 |
| 20260509121258 | 56 | 119 | 0.0 | 0.0 | 0.00 | 0.00 | 0.00 | 85 | 1024.1 |